sat.trackr.live / text

‹ back to catalog

UNKNOWN

NORAD 81946

UNKNOWN UNKNOWN UNKNOWN

§ Identity

Operator
Country
Launch date
Launch site
Launch vehicle
Mass (kg)
RCS (m²)

External: N2YO · Heavens-Above

§ Orbital elements

Epoch: 2026-05-08T12:59:51.357696Z

Period
115.88 min
Inclination
66.4141°
Eccentricity
0.0679141
Mean motion
12.42680336 rev/d
Perigee alt
960.5 km
Apogee alt
2,030.0 km
Semi-major
7,873.4 km
B*
2.0133e-3
RAAN
230.1972°
Arg perigee
280.7336°
Mean anomaly
90.6126°
Rev number
56,612

§ Raw data

UNKNOWN1 81946U          26128.54156664  .00000573  00000+0  20133-2 0  99992 81946  66.4141 230.1972 0679141 280.7336  90.6126 12.42680336566122

JSON: /api/v1/satellites/81946 · /tle

For live sub-satellite position, see the globe view (requires WebGL).

§ Visibility from observer

Set your observer location to see the next 7 days of passes ≥ 10°. The values pass through the URL so the page stays shareable.

No JS? Fill the form by hand. The geolocation button needs JavaScript.